Météo par heure à Santiago del Estero

Ce jour, 2 Octobre, Vendredi

Heure Température Précipitation Vent Pression Humidité
00:00 +19°C° 0 mm 4 m/s 740 mmHg 32%
01:00 +18°C° 0 mm 4 m/s 740 mmHg 32%
02:00 +17°C° 0 mm 5 m/s 741 mmHg 32%
03:00 +17°C° 0 mm 4 m/s 741 mmHg 34%
04:00 +17°C° 0 mm 4 m/s 741 mmHg 37%
05:00 +15°C° 0 mm 4 m/s 742 mmHg 40%
06:00 +15°C° 0 mm 4 m/s 742 mmHg 38%
07:00 +17°C° 0 mm 4 m/s 743 mmHg 37%
08:00 +18°C° 0 mm 4 m/s 743 mmHg 36%
09:00 +19°C° 0 mm 4 m/s 743 mmHg 35%
10:00 +21°C° 0 mm 4 m/s 743 mmHg 34%
11:00 +24°C° 0 mm 3 m/s 743 mmHg 33%
12:00 +25°C° 0 mm 4 m/s 742 mmHg 32%
13:00 +27°C° 0 mm 4 m/s 742 mmHg 32%
14:00 +29°C° 0 mm 5 m/s 741 mmHg 31%
15:00 +29°C° 0 mm 5 m/s 741 mmHg 33%
16:00 +28°C° 0 mm 5 m/s 741 mmHg 35%
17:00 +28°C° 0 mm 5 m/s 741 mmHg 37%
18:00 +26°C° 0 mm 5 m/s 742 mmHg 43%
19:00 +23°C° 0 mm 6 m/s 743 mmHg 49%
20:00 +21°C° 0 mm 6 m/s 744 mmHg 55%
21:00 +20°C° 0 mm 6 m/s 744 mmHg 58%
22:00 +20°C° 0 mm 6 m/s 745 mmHg 60%
23:00 +19°C° 0 mm 5 m/s 745 mmHg 63%

Demain, 3 Octobre, Samedi

Heure Température Précipitation Vent Pression Humidité
00:00 +17°C° 0 mm 5 m/s 745 mmHg 65%
01:00 +16°C° 0 mm 5 m/s 746 mmHg 68%
02:00 +15°C° 0 mm 5 m/s 746 mmHg 70%
03:00 +14°C° 0 mm 5 m/s 746 mmHg 70%
04:00 +14°C° 0 mm 6 m/s 747 mmHg 70%
05:00 +14°C° 0 mm 6 m/s 747 mmHg 71%
06:00 +13°C° 0 mm 6 m/s 748 mmHg 72%
07:00 +11°C° 0 mm 6 m/s 749 mmHg 73%
08:00 +10°C° 0 mm 7 m/s 750 mmHg 74%
09:00 +10°C° 0 mm 6 m/s 750 mmHg 73%
10:00 +10°C° 0 mm 6 m/s 750 mmHg 72%
11:00 +9°C° 0 mm 5 m/s 751 mmHg 71%
12:00 +9°C° 0 mm 5 m/s 750 mmHg 67%
13:00 +10°C° 0 mm 5 m/s 750 mmHg 64%
14:00 +10°C° 0 mm 5 m/s 749 mmHg 60%
15:00 +10°C° 0 mm 5 m/s 749 mmHg 60%
16:00 +10°C° 0 mm 4 m/s 748 mmHg 59%
17:00 +10°C° 0 mm 4 m/s 748 mmHg 59%
18:00 +10°C° 0 mm 4 m/s 748 mmHg 59%
19:00 +10°C° 0 mm 4 m/s 749 mmHg 59%
20:00 +10°C° 0 mm 4 m/s 749 mmHg 59%
21:00 +8°C° 0 mm 4 m/s 750 mmHg 61%
22:00 +9°C° 0 mm 3 m/s 750 mmHg 63%
23:00 +9°C° 0 mm 3 m/s 750 mmHg 65%

Après-demain, 4 Octobre, Dimanche

Heure Température Précipitation Vent Pression Humidité
00:00 +9°C° 0 mm 3 m/s 750 mmHg 67%
01:00 +8°C° 0 mm 3 m/s 749 mmHg 69%
02:00 +8°C° 0 mm 3 m/s 749 mmHg 71%
03:00 +8°C° 0 mm 3 m/s 748 mmHg 72%
04:00 +8°C° 0 mm 2 m/s 747 mmHg 74%
05:00 +8°C° 0 mm 2 m/s 747 mmHg 75%
06:00 +8°C° 0 mm 2 m/s 747 mmHg 75%
07:00 +9°C° 0 mm 2 m/s 747 mmHg 75%
08:00 +9°C° 0 mm 2 m/s 747 mmHg 75%
09:00 +11°C° 0 mm 1 m/s 746 mmHg 72%
10:00 +12°C° 0 mm 1 m/s 746 mmHg 69%
11:00 +13°C° 0 mm 1 m/s 745 mmHg 66%
12:00 +15°C° 0 mm 1 m/s 744 mmHg 61%
13:00 +17°C° 0 mm 2 m/s 743 mmHg 57%
14:00 +19°C° 0 mm 3 m/s 742 mmHg 53%
15:00 +19°C° 0 mm 2 m/s 742 mmHg 54%
16:00 +19°C° 0 mm 2 m/s 741 mmHg 54%
17:00 +20°C° 0 mm 2 m/s 741 mmHg 55%
18:00 +18°C° 0 mm 2 m/s 742 mmHg 61%
19:00 +17°C° 0 mm 2 m/s 742 mmHg 67%
20:00 +14°C° 0 mm 3 m/s 743 mmHg 73%
21:00 +14°C° 0 mm 3 m/s 744 mmHg 77%
22:00 +13°C° 0 mm 3 m/s 744 mmHg 81%
23:00 +12°C° 0 mm 3 m/s 745 mmHg 85%

5 Octobre, Lundi

Heure Température Précipitation Vent Pression Humidité
00:00 +12°C° 0 mm 3 m/s 745 mmHg 86%
01:00 +11°C° 0 mm 3 m/s 745 mmHg 88%
02:00 +11°C° 0 mm 3 m/s 746 mmHg 89%
03:00 +12°C° 0 mm 2 m/s 746 mmHg 90%
04:00 +10°C° 0 mm 2 m/s 746 mmHg 90%
05:00 +10°C° 0 mm 2 m/s 746 mmHg 90%
06:00 +13°C° 0 mm 2 m/s 747 mmHg 83%
07:00 +14°C° 0 mm 2 m/s 747 mmHg 76%
08:00 +15°C° 0 mm 1 m/s 748 mmHg 69%
09:00 +18°C° 0 mm 2 m/s 747 mmHg 61%
10:00 +20°C° 0 mm 2 m/s 747 mmHg 54%
11:00 +23°C° 0 mm 2 m/s 746 mmHg 46%
12:00 +24°C° 0 mm 2 m/s 745 mmHg 43%
13:00 +25°C° 0 mm 2 m/s 744 mmHg 39%
14:00 +27°C° 0 mm 2 m/s 743 mmHg 35%
15:00 +27°C° 0 mm 2 m/s 742 mmHg 35%
16:00 +27°C° 0 mm 3 m/s 742 mmHg 34%
17:00 +27°C° 0 mm 3 m/s 741 mmHg 34%
18:00 +24°C° 0 mm 3 m/s 741 mmHg 41%
19:00 +21°C° 0 mm 3 m/s 741 mmHg 48%
20:00 +19°C° 0 mm 3 m/s 742 mmHg 56%
21:00 +18°C° 0 mm 3 m/s 742 mmHg 61%
22:00 +17°C° 0 mm 2 m/s 742 mmHg 66%
23:00 +16°C° 0 mm 2 m/s 742 mmHg 71%

6 Octobre, Mardi

Heure Température Précipitation Vent Pression Humidité
00:00 +15°C° 0 mm 2 m/s 741 mmHg 75%
01:00 +15°C° 0 mm 1 m/s 741 mmHg 78%
02:00 +14°C° 0 mm 1 m/s 740 mmHg 82%
03:00 +13°C° 0 mm 1 m/s 740 mmHg 83%
04:00 +13°C° 0 mm 1 m/s 740 mmHg 85%
05:00 +13°C° 0 mm 1 m/s 740 mmHg 86%
06:00 +15°C° 0 mm 1 m/s 740 mmHg 77%
07:00 +17°C° 0 mm 2 m/s 741 mmHg 68%
08:00 +20°C° 0 mm 2 m/s 741 mmHg 60%
09:00 +23°C° 0 mm 2 m/s 741 mmHg 53%
10:00 +25°C° 0 mm 2 m/s 741 mmHg 47%
11:00 +27°C° 0 mm 3 m/s 740 mmHg 40%
12:00 +29°C° 0 mm 3 m/s 739 mmHg 37%
13:00 +30°C° 0 mm 3 m/s 739 mmHg 35%
14:00 +33°C° 0 mm 3 m/s 738 mmHg 32%
15:00 +33°C° 0 mm 3 m/s 737 mmHg 31%
16:00 +33°C° 0 mm 3 m/s 737 mmHg 31%
17:00 +33°C° 0 mm 3 m/s 737 mmHg 30%
18:00 +30°C° 0 mm 4 m/s 737 mmHg 37%
19:00 +28°C° 0 mm 4 m/s 738 mmHg 43%
20:00 +25°C° 0 mm 5 m/s 738 mmHg 49%
21:00 +23°C° 0 mm 4 m/s 739 mmHg 53%
22:00 +22°C° 0 mm 4 m/s 739 mmHg 57%
23:00 +21°C° 0 mm 3 m/s 739 mmHg 61%

7 Octobre, Mercredi

Heure Température Précipitation Vent Pression Humidité
00:00 +20°C° 0 mm 3 m/s 739 mmHg 63%
01:00 +19°C° 0 mm 3 m/s 739 mmHg 66%
02:00 +18°C° 0 mm 2 m/s 738 mmHg 68%
03:00 +18°C° 0 mm 2 m/s 739 mmHg 70%
04:00 +18°C° 0 mm 1 m/s 739 mmHg 72%
05:00 +16°C° 0 mm 1 m/s 739 mmHg 74%
06:00 +19°C° 0 mm 1 m/s 740 mmHg 67%
07:00 +20°C° 0 mm 2 m/s 740 mmHg 60%
08:00 +23°C° 0 mm 2 m/s 741 mmHg 53%
09:00 +26°C° 0 mm 2 m/s 741 mmHg 48%
10:00 +28°C° 0 mm 3 m/s 740 mmHg 43%
11:00 +30°C° 0 mm 3 m/s 739 mmHg 39%
12:00 +33°C° 0 mm 3 m/s 738 mmHg 36%
13:00 +34°C° 0 mm 4 m/s 737 mmHg 34%
14:00 +36°C° 0 mm 4 m/s 736 mmHg 32%
15:00 +36°C° 0 mm 4 m/s 736 mmHg 32%
16:00 +36°C° 0 mm 4 m/s 735 mmHg 33%
17:00 +36°C° 0 mm 4 m/s 735 mmHg 33%
18:00 +34°C° 0 mm 4 m/s 735 mmHg 36%
19:00 +33°C° 0 mm 5 m/s 736 mmHg 39%
20:00 +32°C° 0 mm 5 m/s 736 mmHg 43%
21:00 +29°C° 0 mm 5 m/s 737 mmHg 45%
22:00 +28°C° 0 mm 5 m/s 737 mmHg 47%
23:00 +26°C° 0 mm 5 m/s 737 mmHg 49%
Voir plus

We Need Your Consent

Meteoprog and our Service Providers may store and access personal data such as cookies, device identifiers or other similar technologies on your device and process such data to personalise content and ads, as well as provide social media features and to analyse the traffic.

  • Store and/or access information on your device

    Cookies, device identifiers or other information can be stored or accessed on your device for the purposes indicated above.

  • Personalised ads and content, ad and content measurement, audience insights, and products development

    Ads and content can be personalised based on a profile. More data can be added to better personalise ads and content. Ad and content performance can be measured. Insights about the audience who saw the ads and content can be derived. Such data can be used to develop or improve user’s experience, systems and software.

By clicking ‘I Agree’ you will allow the use of indicated cookies, device identifiers, web beacons or other similar technologies. Your settings can be changed in the browser on your device.

For certain purposes, legitimate interests may be relied on, rather than consent. You can read more about this in our Privacy and Cookie Policy.